TANDEM-X

Last updated on Thu Jul 09 2026 00:02:50 GMT+0000 (Coordinated Universal Time)

1 36605U 10030A 26188.47915494 .00000386 00000+0 21566-4 0 9992 2 36605 97.4457 195.8973 0001887 94.3019 265.8431 15.19154052889726
UTC large
Height (km)
Speed (km/s)
/
Latitude / Longitude
Inclination (degrees)
Orbital Period (minutes)
Azimuth
Elevation
Range (km)
Doppler Factor

Next 0 passes for location: London (51.5072 / 0.1276)

No passes found over London.
TANDEM-X